Regional Weather Roundup
Issued by NWS Goodland, KS

Home | Current Version | Previous Version | Graphics & Text | Print | Product List | Glossary On
Versions: 1 2 3 4 5 6 7 8 9 10 11 12 13 14 15 16 17 18 19 20 21 22 23 24 25 26 27 28 29 30 31 32 33 34 35 36 37 38 39 40 41 42 43 44 45 46 47 48 49 50
000
ASUS43 KGLD 230408
RWRGLD

GOODLAND FORECAST AREA HOURLY WEATHER ROUNDUP
NATIONAL WEATHER SERVICE GOODLAND KS
1000 PM MDT THU JUN 22 2017

...OFFICIAL OBSERVATIONS...

CITY           SKY/WX    TMP DP  RH WIND       PRES   REMARKS
GOODLAND KS    PTCLDY    72  58  61 NE17      29.91R
HILL CITY KS   CLOUDY    78  62  57 NE17G25   29.83R
IMPERIAL NEB   CLOUDY    69  52  54 NE10      29.94R
MCCOOK NEB     CLOUDY    72  58  61 N16       29.88R
AKRON CO       CLEAR     67  53  61 E10       30.01R
BURLINGTON CO  CLOUDY    71  57  61 NE15      29.95R
LIMON CO       PTCLDY    69  55  60 E7        30.04R
$$

...UNOFFICIAL OBSERVATIONS...

CITY           SKY/WX    TMP DP  RH WIND       PRES   REMARKS
LENORA KS        N/A     75  32  20 MISG        N/A
NORTON KS      CLEAR     73  55  53 N14       29.85R
SHARON SPRINGS   N/A     73  63  70 E6          N/A
TRENTON NEB      N/A     70  32  24 NE9         N/A
KIT CARSON CO    N/A     68  59  73 CALM        N/A
YUMA CO        FAIR      66  50  55 NE9       29.99R
$$



USA.gov is the U.S. government's official web portal to all federal, state and local government web resources and services.